OneWeb SL0171

operational
NORAD ID: 48070 Int'l Des: 2021-025 Owner: ONEWEBN Country: UK Constellation: oneweb
LEOCIRCULARPOLARONEWEB_TYPE

OneWeb SL0171について

説明を読み込み中...

リアルタイム位置

3D地球を読み込み中...

次回通過

高度履歴

Altitude vs Time

uPlot chart will show altitude changes over time

軌道要素

1 48070U 21025AE 25259.08365718 .00000316 00000-0 83003-3 0 9997
2 48070 87.9030 14.7026 0001663 102.2067 257.9248 13.13470664217633
Epoch: Sep 16, 2025 • Age: 9 hours

現在のステータス

高度 1215.8 km
速度 7.25 km/s
衛星直下点 44.52°N, 149.6°W
打ち上げ日 Mar 25, 2021
運用期間 4.4 years
タイプ internet

技術仕様

分類 Payload
質量 148.00 kg
乾燥質量 140.00 kg
総質量 148.00 kg
長さ 1.30 m
直径 1.00 m
スパン 5.00 m
形状 Trapezoid+2 pan
製造者 ONEWUS
バスタイプ ARROW
フェーズステータス In Orbit
所有者/国 ONEWEBN/UK

大規模コンステレーション

Loading constellations...